Location: Unspecified
(43.4680°N, 87.1740°E)
Time: 20:39:11
(UTC+00:00)

Cosmos 2181 Rocket - Pass Details

Date: 17 April 2021
Orbit: 951 x 1016 km, 82.9° (Epoch: 12 May)

Event Time Altitude Azimuth Distance (km) Brightness Sun altitude
Exits shadow 19:29:03 54° 80° (E) 1,191 4.5 -32.9°
Drops below altitude 10° 19:34:51 10° 17° (NNE) 2,742 7.2 -32.5°
Sets 19:37:23 0° 13° (NNE) 3,685 8.1 -32.3°
